This demonstration page uses our WeatherBlox Daily Observations layout. Learn more.

Left ArrowRight Arrow

40.92945, -100.16068

Hourly Observations for October 7, 2021

Temp ( °F °C ) Dew Point ( °F °C ) Humidity (%) Winds ( mph kmh ) Pressure ( in mb ) Visibility ( mi km ) Precip ( " mm )
12:15 am 00:15 Clear 59 15 54 12.1 83 83 SE 9 15 30.01 1016 10 16 0.00 0.00
12:35 am 00:35 Clear 59 14.8 54 12.1 84 84 SE 8 13 30.01 1016 10 16 0.00 0.00
12:55 am 00:55 Clear 58 14.5 54 12.1 86 86 SE 7 11 30.01 1016 10 16 0.00 0.00
1:15 am 01:15 Clear 57 14 54 12 88 88 SE 7 11 30.01 1016 10 16 0.00 0.00
1:35 am 01:35 Clear 57 14.1 54 12 87 87 SE 8 13 30.01 1016 10 16 0.00 0.00
1:55 am 01:55 Clear 57 14 53 11.9 87 87 SE 7 11 30.01 1016 10 16 0.00 0.00
2:15 am 02:15 Clear 57 13.8 54 12 89 89 SSE 8 13 30.02 1016 10 16 0.00 0.00
2:35 am 02:35 Clear 56 13.6 53 11.8 89 89 SE 7 11 30.02 1017 10 16 0.00 0.00
2:55 am 02:55 Clear 56 13.3 53 11.7 90 90 SE 7 11 30.02 1017 10 16 0.00 0.00
3:15 am 03:15 Clear 56 13.3 53 11.7 90 90 ESE 9 15 30.02 1017 10 16 0.00 0.00
3:35 am 03:35 Clear 55 13 53 11.6 91 91 SE 8 13 30.02 1017 10 16 0.00 0.00
3:55 am 03:55 Clear 55 12.7 53 11.5 92 92 SE 8 13 30.02 1016 10 16 0.00 0.00
4:15 am 04:15 Clear 55 12.5 53 11.5 94 94 SE 6 9 30.03 1017 10 16 0.00 0.00
4:35 am 04:35 Clear 55 12.5 53 11.5 94 94 SE 6 9 30.02 1017 10 16 0.00 0.00
4:55 am 04:55 Clear 55 12.5 53 11.5 94 94 SE 6 9 30.02 1017 10 16 0.00 0.00
5:15 am 05:15 Clear 55 12.6 53 11.6 94 94 SE 8 13 30.03 1017 10 16 0.00 0.00
5:35 am 05:35 Clear 55 12.6 53 11.6 94 94 ESE 8 13 30.03 1017 10 16 0.00 0.00
5:55 am 05:55 Clear 54 12.3 53 11.5 95 95 ESE 8 13 30.02 1017 10 16 0.00 0.00
6:15 am 06:15 Clear 54 12.1 53 11.5 96 96 SE 7 11 30.03 1017 10 16 0.00 0.00
6:35 am 06:35 Clear 54 12.1 53 11.5 96 96 SE 7 11 30.02 1017 10 16 0.00 0.00
6:55 am 06:55 Clear 54 12 53 11.5 97 97 ESE 7 11 30.02 1017 10 16 0.00 0.00
7:15 am 07:15 Clear 53 11.9 52 11.2 96 96 ESE 6 9 30.03 1017 10 16 0.00 0.00
7:35 am 07:35 Clear 53 11.4 51 10.8 96 96 ESE 6 9 30.04 1017 7 11 0.00 0.00
7:55 am 07:55 Sunny 53 11.5 52 11 97 97 ESE 6 9 30.04 1017 7 11 0.00 0.00
8:15 am 08:15 Sunny 53 11.6 52 11.1 97 97 ESE 6 9 30.04 1017 7 11 0.00 0.00
8:35 am 08:35 Sunny 54 12.2 53 11.6 96 96 ESE 5 7 30.03 1017 7 11 0.00 0.00
8:55 am 08:55 Sunny 55 12.9 54 12.2 96 96 SE 6 9 30.02 1017 7 11 0.00 0.00
9:15 am 09:15 Sunny 57 13.8 55 12.6 93 93 SE 6 9 30.02 1016 10 16 0.00 0.00
9:35 am 09:35 Sunny 59 14.9 55 13 89 89 SE 7 11 30.01 1016 10 16 0.00 0.00
9:55 am 09:55 Sunny 61 15.9 56 13.3 85 85 SSE 10 17 30.00 1016 10 16 0.00 0.00
10:15 am 10:15 Sunny 62 16.9 56 13.5 81 81 SSE 8 13 29.98 1015 10 16 0.00 0.00
10:35 am 10:35 Sunny 65 18.2 57 13.9 76 76 SE 9 15 29.98 1015 10 16 0.00 0.00
10:55 am 10:55 Sunny 67 19.5 57 13.7 69 69 SSE 12 19 29.96 1014 10 16 0.00 0.00
11:15 am 11:15 undefined N/A N/A N/A undefined N/A N/A N/A 0.00 0.00
11:35 am 11:35 undefined N/A N/A N/A undefined N/A N/A N/A 0.00 0.00
11:55 am 11:55 undefined N/A N/A N/A undefined N/A N/A N/A 0.00 0.00
12:15 pm 12:15 undefined N/A N/A N/A undefined N/A N/A N/A 0.00 0.00
12:35 pm 12:35 Sunny 73 22.5 56 13.1 55 55 SSE 9 15 29.90 1013 10 16 0.03 0.76
12:55 pm 12:55 Sunny 73 23 55 12.7 52 52 SSE 12 19 29.89 1012 10 16 0.03 0.76
1:15 pm 13:15 Sunny 73 22.7 54 12.3 52 52 SSE 14 22 29.89 1012 10 16 0.00 0.00
1:35 pm 13:35 Sunny 74 23.5 54 12.1 49 49 S 9 15 29.88 1012 7 11 0.00 0.00
1:55 pm 13:55 Sunny 75 24.1 54 12.1 47 47 SE 10 17 29.87 1011 10 16 0.00 0.00
2:15 pm 14:15 Sunny 76 24.6 53 11.9 45 45 S 10 17 29.85 1011 10 16 0.00 0.00
2:35 pm 14:35 Sunny 78 25.3 53 11.9 43 43 SSE 10 17 29.85 1011 10 16 0.00 0.00
2:55 pm 14:55 Sunny 78 25.8 53 11.6 41 41 SSE 14 22 29.83 1010 10 16 0.00 0.00
3:15 pm 15:15 Sunny 78 25.5 53 11.9 43 43 SSE 10 17 29.83 1010 10 16 0.00 0.00
3:35 pm 15:35 Sunny 78 25.6 54 12.1 43 43 SSW 13 20 29.83 1010 10 16 0.00 0.00
3:55 pm 15:55 Sunny 78 25.8 54 12.3 43 43 SE 10 17 29.81 1010 10 16 0.00 0.00
4:15 pm 16:15 Sunny 78 25.8 54 12 42 42 S 14 22 29.81 1010 10 16 0.00 0.00
4:35 pm 16:35 Sunny 78 25.6 54 12.2 43 43 S 10 17 29.82 1010 10 16 0.00 0.00
4:55 pm 16:55 Sunny 78 25.5 54 12.1 43 43 S 15 24 29.82 1010 10 16 0.00 0.00
5:15 pm 17:15 Sunny 78 25.5 55 12.6 45 45 S 13 20 29.82 1010 10 16 0.00 0.00
5:35 pm 17:35 Sunny 77 25.2 54 12.3 45 45 SSE 9 15 29.82 1010 10 16 0.00 0.00
5:55 pm 17:55 Sunny 77 25 54 12 44 44 S 13 20 29.81 1009 10 16 0.00 0.00
6:15 pm 18:15 Sunny 76 24.5 54 12 46 46 SSE 10 17 29.81 1010 10 16 0.00 0.00
6:35 pm 18:35 Sunny 74 23.2 55 12.6 51 51 SSE 7 11 29.84 1010 10 16 0.00 0.00
6:55 pm 18:55 Sunny 71 21.7 55 12.5 56 56 SSE 7 11 29.85 1011 10 16 0.00 0.00
7:15 pm 19:15 Clear 70 21 54 12 57 57 SSE 5 7 29.85 1011 10 16 0.00 0.00
7:35 pm 19:35 Clear 69 20.5 53 11.8 58 58 SE 5 7 29.86 1011 10 16 0.00 0.00
7:55 pm 19:55 Clear 67 19.6 54 12 62 62 SE 5 7 29.87 1011 10 16 0.00 0.00
8:15 pm 20:15 Clear 65 18.3 54 12.1 67 67 SE 5 7 29.88 1012 10 16 0.00 0.00
8:35 pm 20:35 Clear 63 17.3 54 12 71 71 ESE 3 6 29.90 1012 10 16 0.00 0.00
8:55 pm 20:55 Clear 62 16.5 54 12 75 75 Calm 29.90 1013 10 16 0.00 0.00
9:15 pm 21:15 Clear 61 16 53 11.8 76 76 Calm 29.92 1013 10 16 0.00 0.00
9:35 pm 21:35 Clear 62 16.4 54 12 75 75 SSE 5 7 29.91 1013 10 16 0.00 0.00
9:55 pm 21:55 Clear 60 15.8 53 11.9 78 78 SSE 3 6 29.92 1013 10 16 0.00 0.00
10:15 pm 22:15 Clear 60 15.6 53 11.9 79 79 SSE 3 6 29.92 1013 10 16 0.00 0.00
10:35 pm 22:35 Clear 61 15.9 54 12 78 78 SSE 3 6 29.92 1013 10 16 0.00 0.00
10:55 pm 22:55 Clear 60 15.7 54 12 79 79 SE 5 7 29.92 1013 10 16 0.00 0.00
11:15 pm 23:15 Clear 59 14.8 53 11.8 82 82 ESE 3 6 29.93 1013 10 16 0.00 0.00
11:35 pm 23:35 Clear 56 13.3 53 11.4 88 88 E 3 6 29.94 1014 10 16 0.00 0.00
11:55 pm 23:55 Clear 55 12.8 52 11.2 90 90 ESE 3 6 29.95 1014 10 16 0.00 0.00

Powered by AerisWeather